www.pogodaiklimat.ru

Погода и климат >> Архив погоды >> Саудовская Аравия >> Эль-Хуфуф


ПОГОДА в Эль-Хуфуфе

  • Прогноз погоды в Эль-Хуфуфе
  • Монитор погоды в Эль-Хуфуфе

АРХИВ ПОГОДЫ в Эль-Хуфуфе

Время (UTC), дата Ветер
(напр.,м/с)
 
Видим.   Явления Облачность Т
(С)
Тd
(С)
f
(%)
Тe
(С)
Тes
(С)
Комфортность P
(гПа)
Po
(гПа)
Тmin
(С)
Tmax
(С)
R
(мм)
R24
(мм)
S
(см)
09 15.04 ЮЗ 4 10 км ясно +31.4 -6.0 8 +27 +43 жарко 1013.1 992.9
12 15.04 З 6 10 км ясно +33.5 -7.0 7 +29 +33 жарко 1011.0 990.9
15 15.04 СЗ 3 10 км ясно +30.4 -1.0 13 +27 +27 жарко 1011.5 991.3
18 15.04 штиль 0 10 км ясно +24.8 +6.0 30 +25 +25 комфорт 1012.5 992.4 +34.0
21 15.04 ЮЗ 2 10 км ясно +21.2 +8.0 43 +22 +22 комфорт 1012.3 992.2
00 16.04 ЮЗ 2 10 км ясно +20.8 +6.0 38 +23 +23 комфорт 1010.7 990.6
03 16.04 ЮВ 2 10 км 3/0
[Ci fib]
+18.8 +10.0 57 +20 +21 1011.5 991.3
06 16.04 ЮЗ 7 10 км 4/0
[Ac trans Ci sp]
+30.6 +1.0 15 +28 +31 жарко 1012.4 992.3 +18.0
09 16.04 ЮЗ 4 10 км 4/0
[Ci sp]
+35.0 -2.0 9 +31 +45 жарко 1011.4 991.4
12 16.04 З 2 10 км 4/0
[Ac trans]
+36.2 -3.0 8 +32 +40 жарко 1009.2 989.3
15 16.04 ЮВ 3 10 км 4/0
[Ac trans]
+33.4 -3.0 10 +30 +30 жарко 1009.2 989.2
18 16.04 В 3 10 км 5/0
[Ac trans]
+28.4 +4.0 21 +27 +27 жарко 1010.4 990.6 +36.8
21 16.04 штиль 0 10 км ясно +14.5 +2.9 46 +14 +14 1009.6 989.7
00 17.04 Ю 2 10 км ясно +22.5 +7.0 37 +23 +23 комфорт 1008.4 988.5
03 17.04 Ю 6 10 км 5/0
[Ac trans]
+22.4 +4.0 30 +22 +23 комфорт 1009.5 989.4
06 17.04 ЮЗ 8 9000 м пыльный позёмок 4/0
[Ac trans Ci sp]
+31.7 -3.0 10 +28 +30 жарко 1010.5 990.6 +21.3
09 17.04 ЮЗ 9 9000 м пыльный позёмок 4/0
[Ci fib]
+37.0 -5.0 7 +33 +35 жарко 1009.3 989.5
12 17.04 ЮЗ 7 10 км 3/0
[Ci fib]
+38.2 -5.0 6 +34 +37 очень
жарко
1007.5 987.7
15 17.04 Ю 5 10 км 3/0
[Ci sp]
+34.8 -3.0 9 +31 +31 жарко 1007.3 987.5
18 17.04 Ю 2 10 км 1/0
[Ac trans]
+28.0 +3.0 20 +26 +26 жарко 1009.0 989.2 +39.2
21 17.04 Ю 3 10 км ясно +25.6 +5.0 27 +25 +25 комфорт 1008.3 988.6
00 18.04 ЮЗ 3 10 км 3/0
[Ac trans]
+22.6 +6.0 34 +23 +23 комфорт 1007.8 988.0
03 18.04 С 2 7000 м пыль 6/1 1500 м
[Sc diur, vesp Ac trans]
+22.8 +6.0 34 +23 +24 комфорт 1010.5 990.4
06 18.04 В 2 10 км 5/0
[Ac As]
+31.4 0.0 13 +28 +37 жарко 1010.8 990.9 +20.4
09 18.04 Ю 8 10 км 5/0
[Ac trans]
+37.2 -4.0 7 +33 +35 жарко 1008.6 988.8
12 18.04 Ю 8 10 км 3/0
[Ac trans Cc]
+38.6 -5.0 6 +34 +36 очень
жарко
1006.8 987.0
15 18.04 Ю 6 10 км 4/0
[Ci sp]
+35.7 -5.0 7 +31 +31 жарко 1005.9 986.2
18 18.04 Ю 4 10 км ясно +29.4 -1.0 14 +27 +27 жарко 1007.2 987.5 +39.0
21 18.04 штиль 0 10 км 6/1 1200 м
[Sc diur, vesp Ac trans]
+28.3 +2.0 18 +26 +26 жарко 1008.3 988.7
00 19.04 штиль 0 10 км 1/0
[Ac trans]
+23.8 +9.0 39 +25 +25 комфорт 1006.4 986.7
03 19.04 штиль 0 10 км 1/0
[Ac trans]
+21.4 +8.0 42 +22 +23 комфорт 1007.0 987.0
06 19.04 Ю 8 10 км 1/0
[Ac trans]
+33.3 -1.0 11 +30 +32 жарко 1008.4 988.6 +21.2
09 19.04 ЮЗ 7 10 км 1/0
[Ac trans]
+38.2 -4.0 7 +34 +39 очень
жарко
1007.3 987.6
12 19.04 ЮЗ 9 6000 м пыльный позёмок {туман} ясно +40.0 -2.0 7 +36 +37 очень
жарко
1004.3 984.8
15 19.04 СЗ 5 5000 м пыль ясно +35.5 +6.0 16 +33 +33 жарко 1005.2 985.5
18 19.04 С 6 10 км ясно +30.1 +10.0 29 +30 +30 жарко 1008.0 988.1 +40.1
21 19.04 С 5 10 км ясно +26.8 +14.0 45 +29 +29 жарко 1007.2 987.6
00 20.04 С 4 10 км ясно +25.4 +8.0 33 +26 +26 жарко 1005.9 986.3
03 20.04 С 3 10 км ясно +23.4 +11.0 46 +26 +26 жарко 1006.5 986.7
06 20.04 СВ 5 10 км ясно +31.0 +5.0 19 +29 +37 жарко 1007.6 987.8 +23.0
09 20.04 СВ 5 10 км ясно +34.0 +7.0 19 +32 +44 жарко 1006.8 987.0
12 20.04 СВ 4 10 км ясно +35.5 +5.0 15 +33 +40 жарко 1004.8 985.1
15 20.04 СВ 7 10 км ясно +32.7 +3.0 15 +30 +30 жарко 1005.2 985.4
18 20.04 С 7 10 км ясно +27.9 +9.0 31 +28 +28 жарко 1006.6 986.7 +35.7
21 20.04 С 5 10 км ясно +24.1 +13.0 50 +26 +26 жарко 1006.9 987.1
00 21.04 С 5 10 км ясно +23.0 +13.0 53 +26 +26 жарко 1007.2 987.3
03 21.04 С 6 10 км 5/1 1500 м
[Sc diur, vesp Ac As]
+22.7 +12.0 51 +25 +25 комфорт 1007.0 987.1
06 21.04 С 9 10 км 5/4 1200 м
[Sc diur, vesp Ac trans]
+26.7 +9.0 33 +27 +28 жарко 1008.1 988.0 +21.6
09 21.04 СВ 6 10 км 5/5 1200 м
[Sc diur, vesp Ac trans]
+29.5 +10.0 30 +30 +33 жарко 1006.5 986.5
12 21.04 СВ 8 10 км 4/4 1200 м
[Cu hum Ac trans]
+32.5 +7.0 20 +31 +32 жарко 1004.4 984.5
15 21.04 СВ 6 10 км 3/3 1200 м
[Sc diur, vesp]
+30.4 +4.0 19 +28 +28 жарко 1004.0 984.1
18 21.04 С 4 10 км 1/0
[Ac trans]
+25.6 +9.0 35 +26 +26 жарко 1005.0 985.0 +33.4
21 21.04 СВ 3 10 км 1/0
[Ac trans]
+24.0 +9.0 38 +25 +25 комфорт 1004.5 984.6
00 22.04 С 3 10 км 5/1 1500 м
[Sc Ac trans]
+22.0 +12.0 53 +24 +24 комфорт 1003.6 983.7
03 22.04 С 3 10 км 5/1 1500 м
[Sc Ac trans]
+22.0 +12.0 53 +24 +25 комфорт 1003.6 983.7
06 22.04 СЗ 9 5000 м пыльный позёмок 1/0
[Ac trans]
+27.7 +9.0 31 +28 +29 жарко 1008.1 988.0 +21.7

 

Местоположение метеостанции Эль-Хуфуф (Саудовская Аравия): широта 25.30 долгота 49.48 высота над уровнем моря 178 м.

В архиве по умолчанию представлена погода в Эль-Хуфуфе за последнюю неделю. Архивные данные за месяц целиком и за предыдущие месяцы, начиная с января 2011 года, Вы можете получить, выбрав интересующий диапазон дат из раскрывающегося списка и нажав кнопку "Ввод!".


*Определитесь, кто Вы:
робот инопланетянин человек

Внимание! Время в таблицах - всемирное. Для получения местного времени необходимо прибавить поправку, которая равна 3 ч.

Смотрите также архив погоды в соседних городах и на ближайших метеорологических станциях:

Погода в Дахране (Саудовская Аравия) (128 км)
Погода в Духане (Катар) (128 км)
Погода в Эд-Даммаме (Саудовская Аравия) (132 км)
Погода в Абу Самба (Катар) (148 км)
Погода в Бахрейне (Бахрейн) (159 км)
Погода в Дохе (Катар) (210 км)
Погода в Доха порту (Катар) (211 км)
Погода в Аэропорту Хамад (Катар) (214 км)
Погода в Аэропорту Король Халид (Саудовская Аравия) (281 км)
Погода в Нувасибе (Кувейт) (363 км)

Пояснения к столбцам:

Ветер - указаны скорость ветра в м/с - средняя за 10 мин, порывы в срок и между сроками (в фигурных скобках) и направление, откуда дует ветер: С - северный, СВ - северо-восточный, В - восточный, ЮВ - юго-восточный, Ю - южный, ЮЗ - юго-западный, З - западный, СЗ - северо-западный.
Видимость - горизонтальная дальность видимости в метрах или километрах. При видимости от 1 до 10 км при отсутствии осадков обычно наблюдается дымка, при ухудшении видимости до 1 км и менее - туман. В сухую погоду видимость может ухудшаться дымом, пылью или мглою.
Явления - указаны атмосферные явления, наблюдавшиеся в срок или в последний час перед сроком; фигурными скобками обозначены явления, наблюдавшиеся между сроками (за 1-3 часа до срока); квадратными скобками обозначены град или гололедные отложения с указанием их диаметра в мм.
Облачность - указаны через наклонную черту общая и нижняя облачность в баллах и высота нижней границы облаков в метрах; квадратными скобками обозначены формы облаков: Ci - перистые, Cs - перисто-слоистые, Cc - перисто-кучевые, Ac - высококучевые, As - высокослоистые, Sc - слоисто-кучевые, Ns - слоисто-дождевые, Cu - кучевые, Cb - кучево-дождевые. Подробнее классификацию облаков см. в Атласе облаков (PDF).
T - Температура воздуха - температура, измеренная на высоте 2 м над землей.
Td - Температура точки росы - температура, при понижении до которой содержащийся в воздухе водяной пар достигнет насыщения.
f - Относительная влажность воздуха - влажноcть воздуха, измеренная на высоте 2 м над землей.
Te - Эффективная температура - температура, которую ощущает одетый по сезону человек в тени. Характеристика душности погоды. При расчете учитывается влияние влажности воздуха и скорости ветра на теплоощущения человека.
Tes - Эффективная температура на солнце - температура, которую ощущает человек, с поправкой на солнечный нагрев. Характеристика знойности погоды. Зависит от высоты солнца над горизонтом, облачности и скорости ветра. Ночью, в пасмурную погоду, а также при ветре 12 м/с и более поправка равна нулю.
P - Атмосферное давление - приведенное к уровню моря атмосферное давление.
Po - Атмосферное давление - измеренное на уровне метеостанции атмосферное давление.
Tmin - Минимальная температура - минимум температуры воздуха на высоте 2 м над землей.
Tmax - Максимальная температура - максимум температуры воздуха на высоте 2 м над землей.
R - Количество осадков - Количество выпавших осадков за период времени, мм. При наведении курсора мыши на число - период времени, за который выпало указанное количество осадков.
R24 - Количество осадков - Количество выпавших осадков за 24 часа, мм.
S - Снежный покров - Высота снежного покрова, см. При наведении курсора мыши на число - состояние снежного покрова и степень покрытия местности в баллах.